Total_Precipitation_Accumulation
0.00 0.00 0.01 0.00 0.01 0.00 0.00 0.00 0.00 0.00 0.00 0.00 0.00 0.00 0.00 0.00 0.00 0.00 0.00 0.00 0.00 0.00 0.01 0.03 0.02 0.00 0.00 0.00 0.00 0.00 0.00 0.00 0.00 0.00 0.00 0.01 0.01 0.01 0.00 0.00 0.00 0.00 0.01
0.00 0.00 0.01 0.00 0.01 0.01 0.01 0.00 0.00 0.01 0.00 0.00 0.00 0.00 0.00 0.01 0.00 0.00 0.00 0.00 0.00 0.01 0.03 0.03 0.01 0.00 0.00 0.00 0.00 0.00 0.00 0.00 0.00 0.00 0.00 0.00 0.00 0.00 0.00 0.00 0.00 0.00 0.01
0.00 0.00 0.00 0.00 0.00 0.01 0.01 0.01 0.00 0.01 0.02 0.01 0.00 0.00 0.01 0.01 0.00 0.00 0.00 0.00 0.00 0.02 0.03 0.01 0.00 0.00 0.00 0.00 0.00 0.00 0.00 0.00 0.00 0.00 0.00 0.00 0.00 0.00 0.00 0.00 0.00 0.00 0.00
0.00 0.00 0.00 0.00 0.00 0.00 0.00 0.00 0.01 0.00 0.01 0.02 0.01 0.01 0.01 0.01 0.00 0.00 0.00 0.00 0.00 0.01 0.02 0.00 0.00 0.00 0.00 0.00 0.00 0.00 0.00 0.00 0.00 0.00 0.00 0.00 0.00 0.00 0.00 0.00 0.00 0.00 0.00
0.00 0.00 0.00 0.00 0.00 0.00 0.00 0.00 0.00 0.00 0.00 0.01 0.02 0.03 0.04 0.05 0.01 0.00 0.00 0.00 0.01 0.01 0.01 0.00 0.00 0.00 0.00 0.00 0.00 0.00 0.00 0.00 0.00 0.00 0.00 0.00 0.00 0.00 0.00 0.00 0.00 0.00 0.00
0.00 0.00 0.03 0.09 0.05 0.02 0.04 0.01 0.00 0.00 0.00 0.01 0.02 0.03 0.04 0.07 0.05 0.00 0.00 0.00 0.00 0.01 0.01 0.01 0.00 0.00 0.00 0.00 0.00 0.00 0.00 0.00 0.00 0.00 0.00 0.00 0.00 0.00 0.00 0.00 0.00 0.00 0.00
0.01 0.00 0.11 0.27 0.24 0.03 0.03 0.05 0.01 0.00 0.02 0.00 0.01 0.03 0.06 0.05 0.12 0.01 0.01 0.00 0.00 0.00 0.01 0.01 0.00 0.00 0.00 0.00 0.00 0.00 0.00 0.00 0.00 0.00 0.00 0.00 0.00 0.00 0.00 0.00 0.00 0.00 0.00
0.10 0.05 0.15 0.24 0.23 0.28 0.18 0.10 0.02 0.01 0.04 0.03 0.02 0.05 0.08 0.13 0.13 0.05 0.02 0.00 0.00 0.00 0.01 0.01 0.00 0.00 0.00 0.00 0.00 0.00 0.00 0.00 0.00 0.00 0.00 0.00 0.00 0.00 0.00 0.00 0.00 0.00 0.00
0.26 0.24 0.06 0.02 0.03 0.08 0.07 0.05 0.01 0.01 0.04 0.05 0.03 0.06 0.12 0.17 0.12 0.06 0.02 0.00 0.01 0.01 0.02 0.01 0.00 0.00 0.00 0.00 0.00 0.00 0.00 0.00 0.00 0.00 0.00 0.00 0.00 0.00 0.00 0.00 0.00 0.00 0.00
0.18 0.30 0.37 0.17 0.08 0.09 0.02 0.01 0.01 0.01 0.01 0.12 0.05 0.07 0.10 0.10 0.06 0.03 0.01 0.01 0.01 0.02 0.01 0.00 0.00 0.00 0.00 0.00 0.00 0.00 0.00 0.00 0.00 0.00 0.00 0.00 0.00 0.00 0.00 0.00 0.00 0.00 0.00
0.04 0.09 0.25 0.39 0.33 0.21 0.05 0.01 0.00 0.01 0.00 0.10 0.09 0.06 0.07 0.05 0.01 0.00 0.00 0.01 0.01 0.01 0.01 0.00 0.00 0.00 0.00 0.00 0.00 0.00 0.00 0.00 0.00 0.00 0.00 0.00 0.00 0.00 0.00 0.00 0.00 0.00 0.00
0.01 0.03 0.05 0.16 0.25 0.22 0.16 0.07 0.01 0.00 0.03 0.04 0.12 0.09 0.07 0.06 0.01 0.00 0.00 0.00 0.01 0.01 0.01 0.00 0.00 0.00 0.00 0.00 0.00 0.00 0.00 0.00 0.00 0.00 0.00 0.00 0.00 0.00 0.00 0.00 0.00 0.00 0.00
0.00 0.00 0.00 0.01 0.05 0.07 0.10 0.11 0.03 0.00 0.01 0.06 0.10 0.21 0.11 0.10 0.07 0.00 0.00 0.00 0.00 0.00 0.00 0.00 0.00 0.00 0.00 0.00 0.00 0.00 0.00 0.00 0.00 0.00 0.00 0.00 0.00 0.00 0.00 0.00 0.00 0.00 0.00
0.00 0.00 0.00 0.00 0.00 0.00 0.03 0.13 0.05 0.01 0.00 0.04 0.05 0.24 0.25 0.15 0.15 0.14 0.01 0.00 0.00 0.00 0.00 0.00 0.00 0.00 0.00 0.00 0.00 0.00 0.00 0.00 0.00 0.00 0.00 0.00 0.00 0.00 0.00 0.00 0.00 0.00 0.00
0.00 0.00 0.00 0.00 0.00 0.00 0.01 0.07 0.06 0.02 0.00 0.01 0.05 0.06 0.37 0.29 0.21 0.16 0.20 0.06 0.00 0.00 0.00 0.00 0.00 0.00 0.00 0.00 0.00 0.00 0.00 0.00 0.00 0.00 0.00 0.00 0.00 0.00 0.00 0.00 0.00 0.00 0.00
0.00 0.00 0.00 0.00 0.00 0.00 0.00 0.01 0.05 0.02 0.01 0.00 0.02 0.02 0.06 0.36 0.33 0.37 0.21 0.16 0.05 0.00 0.00 0.00 0.00 0.00 0.00 0.00 0.00 0.00 0.00 0.00 0.00 0.00 0.00 0.00 0.00 0.00 0.00 0.00 0.00 0.00 0.00
0.00 0.00 0.00 0.00 0.00 0.00 0.00 0.00 0.01 0.05 0.04 0.00 0.00 0.01 0.01 0.08 0.35 0.32 0.56 0.25 0.03 0.00 0.00 0.00 0.00 0.00 0.00 0.00 0.00 0.00 0.00 0.00 0.00 0.00 0.00 0.00 0.00 0.00 0.00 0.00 0.00 0.00 0.00
0.00 0.00 0.00 0.00 0.00 0.00 0.00 0.00 0.02 0.09 0.13 0.02 0.00 0.00 0.00 0.00 0.05 0.25 0.27 0.35 0.11 0.01 0.00 0.00 0.00 0.00 0.00 0.00 0.00 0.00 0.00 0.00 0.00 0.00 0.00 0.00 0.00 0.00 0.00 0.00 0.00 0.00 0.00
0.00 0.01 0.01 0.00 0.00 0.00 0.02 0.04 0.05 0.18 0.28 0.20 0.06 0.01 0.00 0.00 0.00 0.05 0.13 0.14 0.08 0.03 0.00 0.00 0.00 0.00 0.00 0.00 0.00 0.00 0.00 0.00 0.00 0.00 0.00 0.00 0.00 0.00 0.00 0.00 0.00 0.00 0.00
0.01 0.02 0.03 0.01 0.00 0.00 0.04 0.12 0.16 0.18 0.25 0.28 0.21 0.09 0.02 0.01 0.00 0.01 0.05 0.08 0.03 0.00 0.00 0.00 0.00 0.00 0.00 0.00 0.00 0.00 0.00 0.00 0.00 0.00 0.00 0.00 0.00 0.00 0.00 0.00 0.00 0.00 0.00
0.04 0.02 0.02 0.01 0.01 0.01 0.02 0.03 0.12 0.17 0.13 0.34 0.20 0.18 0.13 0.04 0.02 0.02 0.03 0.03 0.04 0.01 0.00 0.00 0.00 0.00 0.00 0.00 0.00 0.00 0.00 0.00 0.00 0.00 0.00 0.00 0.00 0.00 0.00 0.00 0.00 0.00 0.00
0.05 0.03 0.02 0.01 0.01 0.02 0.03 0.02 0.05 0.13 0.26 0.44 0.49 0.31 0.34 0.20 0.09 0.04 0.03 0.02 0.01 0.00 0.00 0.00 0.01 0.00 0.00 0.00 0.00 0.00 0.00 0.00 0.00 0.00 0.00 0.00 0.00 0.00 0.00 0.00 0.00 0.00 0.00
0.05 0.01 0.01 0.01 0.03 0.09 0.09 0.05 0.04 0.07 0.15 0.52 0.79 0.53 0.42 0.45 0.40 0.27 0.16 0.09 0.04 0.02 0.04 0.04 0.07 0.08 0.09 0.05 0.02 0.00 0.00 0.00 0.01 0.01 0.01 0.00 0.00 0.00 0.00 0.00 0.00 0.00 0.00
0.04 0.01 0.01 0.10 0.27 0.15 0.08 0.35 0.29 0.11 0.10 0.16 0.69 0.73 0.43 0.38 0.37 0.37 0.35 0.34 0.31 0.26 0.23 0.20 0.17 0.17 0.18 0.17 0.17 0.11 0.06 0.04 0.02 0.01 0.02 0.01 0.01 0.00 0.01 0.00 0.00 0.00 0.00
0.04 0.02 0.03 0.08 0.41 0.61 0.31 0.72 0.92 0.62 0.31 0.21 0.38 0.73 0.56 0.55 0.41 0.38 0.31 0.28 0.28 0.30 0.31 0.29 0.25 0.24 0.20 0.15 0.11 0.10 0.09 0.06 0.06 0.04 0.05 0.06 0.05 0.03 0.01 0.00 0.00 0.00 0.00
0.01 0.04 0.07 0.14 0.37 0.83 0.87 0.88 0.98 1.01 0.95 0.64 0.61 0.84 0.63 0.56 0.58 0.47 0.37 0.28 0.25 0.27 0.25 0.24 0.23 0.16 0.15 0.13 0.09 0.06 0.04 0.03 0.01 0.03 0.06 0.08 0.09 0.07 0.04 0.04 0.04 0.02 0.01